User: anonymous   Login
Location: Wells
(51.2093°N, 2.6446°W)
Time: 20:59:59
(UTC+00:00)
Language:

Oscar 19 - Orbit

View from above orbital plane
View from above orbital plane
View from above satellite
View from above satellite

Ground track
Ground track

The orbit is defined by the following mean orbital elements,

1 20442U          26075.03986872 +.00000000 +00000-0 +73193-4 0 00005
2 20442  98.8931  94.2467 0012561 117.2322 243.0143 14.34090825    00
Epoch (UTC): 16 March 2026 00:57:24
Eccentricity: 0.0012561
inclination: 98.8931°
perigee height: 769 km
apogee height: 787 km
right ascension of ascending node: 94.2467°
argument of perigee: 117.2322°
revolutions per day: 14.34090825
mean anomaly at epoch: 243.0143°

The dashed part of the orbit path shows where the satellite is in the earth's shadow,  

DLR